����,���ϕ���(m/s),���ϕ���,�ő�u�ԕ���(m/s),�ő啗��������,�C��(��),���x(%),10���Ԉړ��ώZ�J��(mm),1���Ԉړ��ώZ�J��(mm),���J��(mm),�݌v�J��(mm)
2023-04-03T00:00:00+09:00,1,���쓌,2.8,���쓌,9.2,71.6,0,0,0,0
2023-04-03T00:01:00+09:00,1,���쓌,3.7,���쓌,9.2,71.4,0,0,0,0
2023-04-03T00:02:00+09:00,1.2,���쓌,3.8,�k��,9.3,72.1,0,0,0,0
2023-04-03T00:03:00+09:00,1.3,���쓌,3.8,�k��,9.4,72.1,0,0,0,0
2023-04-03T00:04:00+09:00,1.5,��,3.8,�k��,9.4,71.8,0,0,0,0
2023-04-03T00:05:00+09:00,1.6,��,4.1,��,9.4,71.2,0,0,0,0
2023-04-03T00:06:00+09:00,1.7,��,4.1,��,9.5,71,0,0,0,0
2023-04-03T00:07:00+09:00,1.7,��,4.1,��,9.5,70.9,0,0,0,0
2023-04-03T00:08:00+09:00,1.8,���k��,4.1,��,9.5,70.1,0,0,0,0
2023-04-03T00:09:00+09:00,1.9,���k��,4.1,��,9.4,69.9,0,0,0,0
2023-04-03T00:10:00+09:00,1.9,���k��,4.1,��,9.5,70.5,0,0,0,0
2023-04-03T00:11:00+09:00,1.8,���k��,4.1,��,9.4,70.1,0,0,0,0
2023-04-03T00:12:00+09:00,1.7,���k��,4.1,��,9.4,70.1,0,0,0,0
2023-04-03T00:13:00+09:00,1.6,��,4.1,��,9.4,70.3,0,0,0,0
2023-04-03T00:14:00+09:00,1.5,��,4.1,��,9.4,70.4,0,0,0,0
2023-04-03T00:15:00+09:00,1.4,��,3.2,�k��,9.6,70.8,0,0,0,0
2023-04-03T00:16:00+09:00,1.4,���쓌,3.2,�k��,9.4,70.2,0,0,0,0
2023-04-03T00:17:00+09:00,1.4,���쓌,3.2,�k��,9.3,70.2,0,0,0,0
2023-04-03T00:18:00+09:00,1.2,���쓌,3.2,�k��,9.1,70.7,0,0,0,0
2023-04-03T00:19:00+09:00,1.1,���쓌,2.9,��쓌,9.1,71.3,0,0,0,0
2023-04-03T00:20:00+09:00,1.1,���쓌,2.9,��쓌,9.1,71.9,0,0,0,0
2023-04-03T00:21:00+09:00,1.2,���쓌,2.9,��쓌,9.2,72.5,0,0,0,0
2023-04-03T00:22:00+09:00,1.2,���쓌,2.9,��쓌,9.2,72,0,0,0,0
2023-04-03T00:23:00+09:00,1.2,���쓌,2.9,��쓌,9.2,72,0,0,0,0
2023-04-03T00:24:00+09:00,1.2,�쓌,2.9,��쓌,9.2,71.9,0,0,0,0
2023-04-03T00:25:00+09:00,1.2,���쓌,2.8,���쓌,9.1,71.6,0,0,0,0
2023-04-03T00:26:00+09:00,1.4,���쓌,3.3,���k��,9,71.7,0,0,0,0
2023-04-03T00:27:00+09:00,1.5,��,3.6,�k��,9.2,72.8,0,0,0,0
2023-04-03T00:28:00+09:00,1.5,��,3.6,�k��,9.3,72.6,0,0,0,0
2023-04-03T00:29:00+09:00,1.7,��,4.7,��,9.3,71.7,0,0,0,0
2023-04-03T00:30:00+09:00,1.9,��,4.9,���k��,9.4,71.4,0,0,0,0
2023-04-03T00:31:00+09:00,1.9,��,4.9,���k��,9.4,71.2,0,0,0,0
2023-04-03T00:32:00+09:00,1.9,��,4.9,���k��,9.4,70.8,0,0,0,0
2023-04-03T00:33:00+09:00,1.9,��,4.9,���k��,9.4,70.4,0,0,0,0
2023-04-03T00:34:00+09:00,1.9,��,4.9,���k��,9.4,70.5,0,0,0,0
2023-04-03T00:35:00+09:00,2,��,4.9,���k��,9.4,70.2,0,0,0,0
2023-04-03T00:36:00+09:00,1.9,��,4.9,���k��,9.3,70.1,0,0,0,0
2023-04-03T00:37:00+09:00,1.9,��,4.9,���k��,9.3,70.8,0,0,0,0
2023-04-03T00:38:00+09:00,2.1,��,4.9,���k��,9.3,70.7,0,0,0,0
2023-04-03T00:39:00+09:00,1.9,��,4.9,���k��,9.4,70.8,0,0,0,0
2023-04-03T00:40:00+09:00,1.8,��,4,�k��,9.4,70.8,0,0,0,0
2023-04-03T00:41:00+09:00,1.7,��,4,�k��,9.4,70.5,0,0,0,0
2023-04-03T00:42:00+09:00,1.7,���쓌,4,�k��,9.3,70.2,0,0,0,0
2023-04-03T00:43:00+09:00,1.7,���쓌,4,�k��,9.2,70.3,0,0,0,0
2023-04-03T00:44:00+09:00,1.8,���쓌,4,�k��,9.1,70.9,0,0,0,0
2023-04-03T00:45:00+09:00,1.8,���쓌,4,�k��,9,71.4,0,0,0,0
2023-04-03T00:46:00+09:00,1.8,���쓌,4,�k��,9,71.8,0,0,0,0
2023-04-03T00:47:00+09:00,1.9,���쓌,3.8,���쓌,9.1,72.2,0,0,0,0
2023-04-03T00:48:00+09:00,1.7,���쓌,3.8,���쓌,9.2,72.3,0,0,0,0
2023-04-03T00:49:00+09:00,1.8,���쓌,3.8,���쓌,9.2,72,0,0,0,0
2023-04-03T00:50:00+09:00,1.9,���쓌,3.8,���쓌,9.3,71.8,0,0,0,0
2023-04-03T00:51:00+09:00,1.8,���쓌,3.8,���쓌,9.3,71.5,0,0,0,0
2023-04-03T00:52:00+09:00,1.7,���쓌,3.8,���쓌,9.2,71.1,0,0,0,0
2023-04-03T00:53:00+09:00,1.6,���쓌,3.8,���쓌,9.1,71,0,0,0,0
2023-04-03T00:54:00+09:00,1.5,���쓌,3.8,���쓌,9,71.4,0,0,0,0
2023-04-03T00:55:00+09:00,1.3,���쓌,3.8,���쓌,8.9,71.9,0,0,0,0
2023-04-03T00:56:00+09:00,1.1,��,3.8,���쓌,8.9,72.3,0,0,0,0
2023-04-03T00:57:00+09:00,1,��,3.1,���k��,8.9,72.9,0,0,0,0
2023-04-03T00:58:00+09:00,1,��,3.1,���k��,9,73.3,0,0,0,0
2023-04-03T00:59:00+09:00,0.8,��,2.8,��,9,72.6,0,0,0,0
2023-04-03T01:00:00+09:00,0.8,��,2.1,��,9.1,72.7,0,0,0,0
2023-04-03T01:01:00+09:00,0.8,���k��,2.1,��,9.1,72.3,0,0,0,0
2023-04-03T01:02:00+09:00,0.8,���k��,2.1,��,9,71.9,0,0,0,0
2023-04-03T01:03:00+09:00,0.8,���k��,2.1,��,8.8,71.7,0,0,0,0
2023-04-03T01:04:00+09:00,0.9,��,2.1,��,8.9,72.7,0,0,0,0
2023-04-03T01:05:00+09:00,0.9,��,2.1,��,8.8,73,0,0,0,0
2023-04-03T01:06:00+09:00,1.2,���쓌,4.5,��쓌,8.8,73.3,0,0,0,0
2023-04-03T01:07:00+09:00,1.2,���쓌,4.5,��쓌,8.8,74,0,0,0,0
2023-04-03T01:08:00+09:00,1.3,���쓌,4.5,��쓌,8.8,73.6,0,0,0,0
2023-04-03T01:09:00+09:00,1.4,���쓌,4.5,��쓌,8.9,73.9,0,0,0,0
2023-04-03T01:10:00+09:00,1.5,���쓌,4.5,��쓌,9,73.7,0,0,0,0
2023-04-03T01:11:00+09:00,1.6,���쓌,4.5,��쓌,9,72.9,0,0,0,0
2023-04-03T01:12:00+09:00,1.7,���쓌,4.5,��쓌,8.9,72.5,0,0,0,0
2023-04-03T01:13:00+09:00,1.6,���쓌,4.5,��쓌,8.8,72.4,0,0,0,0
2023-04-03T01:14:00+09:00,1.6,���쓌,4.5,��쓌,8.7,72.9,0,0,0,0
2023-04-03T01:15:00+09:00,1.6,���쓌,4.5,��쓌,8.7,73.3,0,0,0,0
2023-04-03T01:16:00+09:00,1.5,���쓌,4.2,�k��,8.7,73.3,0,0,0,0
2023-04-03T01:17:00+09:00,1.4,�쓌,4.2,�k��,8.8,73.9,0,0,0,0
2023-04-03T01:18:00+09:00,1.3,��쓌,4.2,�k��,8.8,73.9,0,0,0,0
2023-04-03T01:19:00+09:00,1.2,��쓌,4.2,�k��,8.8,73.7,0,0,0,0
2023-04-03T01:20:00+09:00,1.1,��쓌,2.9,��,8.8,73.4,0,0,0,0
2023-04-03T01:21:00+09:00,1,��,2.3,�쓌,8.8,73.4,0,0,0,0
2023-04-03T01:22:00+09:00,1,��쓌,2.3,�쓌,8.8,73.5,0,0,0,0
2023-04-03T01:23:00+09:00,1.1,��쓌,2.3,�쓌,8.8,73.5,0,0,0,0
2023-04-03T01:24:00+09:00,1.2,��쓌,2.3,�쓌,8.9,73.8,0,0,0,0
2023-04-03T01:25:00+09:00,1.2,��쓌,2.3,�쓌,9,73.6,0,0,0,0
2023-04-03T01:26:00+09:00,1.2,��쓌,2.8,���쓌,9,72.7,0,0,0,0
2023-04-03T01:27:00+09:00,1.4,�쓌,2.8,���쓌,9,72.4,0,0,0,0
2023-04-03T01:28:00+09:00,1.4,�쓌,2.8,���쓌,8.9,72,0,0,0,0
2023-04-03T01:29:00+09:00,1.4,�쓌,2.8,���쓌,8.8,72.1,0,0,0,0
2023-04-03T01:30:00+09:00,1.4,�쓌,3.5,�k��,9,73.1,0,0,0,0
2023-04-03T01:31:00+09:00,1.5,�쓌,3.5,�k��,9,72.6,0,0,0,0
2023-04-03T01:32:00+09:00,1.6,�쓌,3.5,�k��,9,72.1,0,0,0,0
2023-04-03T01:33:00+09:00,1.7,�쓌,3.7,��쓌,8.9,72,0,0,0,0
2023-04-03T01:34:00+09:00,1.7,�쓌,3.7,��쓌,9,72.2,0,0,0,0
2023-04-03T01:35:00+09:00,1.6,�쓌,3.7,��쓌,9,71.9,0,0,0,0
2023-04-03T01:36:00+09:00,1.6,�쓌,3.7,��쓌,8.9,71.8,0,0,0,0
2023-04-03T01:37:00+09:00,1.5,���쓌,3.7,��쓌,9,72,0,0,0,0
2023-04-03T01:38:00+09:00,1.4,���쓌,3.7,��쓌,9,72.1,0,0,0,0
2023-04-03T01:39:00+09:00,1.4,���쓌,3.7,��쓌,9.1,71.9,0,0,0,0
2023-04-03T01:40:00+09:00,1.3,�쓌,3.7,��쓌,9.1,71.4,0,0,0,0
2023-04-03T01:41:00+09:00,1.4,�쓌,3.8,��,9,71.2,0,0,0,0
2023-04-03T01:42:00+09:00,1.4,�쓌,4.2,��,8.8,70.4,0,0,0,0
2023-04-03T01:43:00+09:00,1.2,�쓌,4.2,��,8.7,71,0,0,0,0
2023-04-03T01:44:00+09:00,1.1,���쓌,4.2,��,8.6,71.6,0,0,0,0
2023-04-03T01:45:00+09:00,1.1,�쓌,4.2,��,8.6,72.3,0,0,0,0
2023-04-03T01:46:00+09:00,1,�쓌,4.2,��,8.5,72.7,0,0,0,0
2023-04-03T01:47:00+09:00,1.1,�쓌,4.2,��,8.5,73.4,0,0,0,0
2023-04-03T01:48:00+09:00,1.2,���쓌,4.2,��,8.8,74.5,0,0,0,0
2023-04-03T01:49:00+09:00,1.2,���쓌,4.2,��,9,74.1,0,0,0,0
2023-04-03T01:50:00+09:00,1.2,���쓌,4.2,��,9,72.8,0,0,0,0
2023-04-03T01:51:00+09:00,1.1,���쓌,4.2,��,8.9,72.1,0,0,0,0
2023-04-03T01:52:00+09:00,1,���쓌,2.9,��,8.8,71.6,0,0,0,0
2023-04-03T01:53:00+09:00,1,���쓌,2.7,�k�k��,8.8,72.1,0,0,0,0
2023-04-03T01:54:00+09:00,1.1,���쓌,2.7,�k�k��,8.9,72.5,0,0,0,0
2023-04-03T01:55:00+09:00,1.2,�쓌,2.7,�k�k��,8.8,72.2,0,0,0,0
2023-04-03T01:56:00+09:00,1.2,�쓌,2.7,�k�k��,8.7,72,0,0,0,0
2023-04-03T01:57:00+09:00,1.1,�쓌,2.7,�k�k��,8.7,72.5,0,0,0,0
2023-04-03T01:58:00+09:00,1.2,��쓌,2.1,�쓌,8.6,72.6,0,0,0,0
2023-04-03T01:59:00+09:00,1.1,��쓌,2.1,�쓌,8.5,72.9,0,0,0,0
2023-04-03T02:00:00+09:00,1.1,�쓌,2.1,�쓌,8.4,73.2,0,0,0,0
2023-04-03T02:01:00+09:00,1,�쓌,2.1,�쓌,8.5,73.9,0,0,0,0
2023-04-03T02:02:00+09:00,1,��쓌,2.1,�쓌,8.8,74.8,0,0,0,0
2023-04-03T02:03:00+09:00,1,��쓌,2.9,�쓌,8.8,74.2,0,0,0,0
2023-04-03T02:04:00+09:00,1,��쓌,2.9,�쓌,8.8,73,0,0,0,0
2023-04-03T02:05:00+09:00,1,��쓌,2.9,�쓌,8.7,72.6,0,0,0,0
2023-04-03T02:06:00+09:00,1,��쓌,2.9,�쓌,8.7,72.8,0,0,0,0
2023-04-03T02:07:00+09:00,1,�쓌,2.9,�쓌,8.7,72.7,0,0,0,0
2023-04-03T02:08:00+09:00,1,�쓌,2.9,�쓌,8.7,72.6,0,0,0,0
2023-04-03T02:09:00+09:00,1,�쓌,2.9,�쓌,8.9,73,0,0,0,0
2023-04-03T02:10:00+09:00,1,���쓌,2.9,�쓌,8.8,72.3,0,0,0,0
2023-04-03T02:11:00+09:00,1.1,���쓌,2.9,�쓌,8.8,72.1,0,0,0,0
2023-04-03T02:12:00+09:00,1.2,���쓌,2.9,�쓌,8.9,72.2,0,0,0,0
2023-04-03T02:13:00+09:00,1.1,��,2.5,�k��,8.9,71.8,0,0,0,0
2023-04-03T02:14:00+09:00,1.1,��,2.5,�k��,8.9,71.4,0,0,0,0
2023-04-03T02:15:00+09:00,1.2,��,2.5,�k��,8.8,71.1,0,0,0,0
2023-04-03T02:16:00+09:00,1.2,���쓌,2.5,�k��,8.6,71.1,0,0,0,0
2023-04-03T02:17:00+09:00,1.2,���쓌,2.5,�k��,8.5,71.3,0,0,0,0
2023-04-03T02:18:00+09:00,1.1,���쓌,2.5,�k��,8.4,72.1,0,0,0,0
2023-04-03T02:19:00+09:00,1.2,�쓌,2.5,�k��,8.4,72.7,0,0,0,0
2023-04-03T02:20:00+09:00,1.2,�쓌,2.5,�k��,8.5,73.5,0,0,0,0
2023-04-03T02:21:00+09:00,1.1,�쓌,2.5,�k��,8.5,73.7,0,0,0,0
2023-04-03T02:22:00+09:00,1,��쓌,2.4,��,8.3,73.1,0,0,0,0
2023-04-03T02:23:00+09:00,1,��쓌,2.4,��,8.4,73.8,0,0,0,0
2023-04-03T02:24:00+09:00,1.1,��쓌,2.7,��,8.4,74.3,0,0,0,0
2023-04-03T02:25:00+09:00,1.2,��쓌,2.7,��,8.3,74.1,0,0,0,0
2023-04-03T02:26:00+09:00,1.1,��쓌,2.7,��,8.3,74.3,0,0,0,0
2023-04-03T02:27:00+09:00,1.1,��쓌,3.4,�쐼,8.5,75.1,0,0,0,0
2023-04-03T02:28:00+09:00,1.2,��쓌,3.8,�쓌,8.6,74.8,0,0,0,0
2023-04-03T02:29:00+09:00,1.3,��쓌,3.8,�쓌,8.8,74.4,0,0,0,0
2023-04-03T02:30:00+09:00,1.3,��쓌,3.8,�쓌,8.8,73.4,0,0,0,0
2023-04-03T02:31:00+09:00,1.2,��쓌,3.8,�쓌,8.7,72.5,0,0,0,0
2023-04-03T02:32:00+09:00,1.2,�쓌,3.8,�쓌,8.6,72.2,0,0,0,0
2023-04-03T02:33:00+09:00,1.3,�쓌,3.8,�쓌,8.7,72.6,0,0,0,0
2023-04-03T02:34:00+09:00,1.3,�쓌,3.8,�쓌,8.7,72.6,0,0,0,0
2023-04-03T02:35:00+09:00,1.1,���쓌,3.8,�쓌,8.7,72.6,0,0,0,0
2023-04-03T02:36:00+09:00,1.1,���쓌,3.8,�쓌,8.8,72.7,0,0,0,0
2023-04-03T02:37:00+09:00,1,��,3.8,�쓌,8.7,72,0,0,0,0
2023-04-03T02:38:00+09:00,0.9,���쓌,3.5,�k,8.6,71.8,0,0,0,0
2023-04-03T02:39:00+09:00,0.9,���쓌,3.5,�k,8.7,72.5,0,0,0,0
2023-04-03T02:40:00+09:00,0.9,���쓌,3.5,�k,8.7,72.4,0,0,0,0
2023-04-03T02:41:00+09:00,0.9,�쓌,3.5,�k,8.6,72.1,0,0,0,0
2023-04-03T02:42:00+09:00,1.1,�쓌,3.5,�k,8.6,72.3,0,0,0,0
2023-04-03T02:43:00+09:00,1.1,�쓌,3.2,�쓌,8.7,72.7,0,0,0,0
2023-04-03T02:44:00+09:00,1,�쓌,3.2,�쓌,8.6,72.5,0,0,0,0
2023-04-03T02:45:00+09:00,1,��쓌,3.2,�쓌,8.6,72,0,0,0,0
2023-04-03T02:46:00+09:00,1,��쓌,3.2,�쓌,8.6,72.6,0,0,0,0
2023-04-03T02:47:00+09:00,1.1,��쓌,3.2,�쓌,8.6,72.7,0,0,0,0
2023-04-03T02:48:00+09:00,1,��쓌,3.2,�쓌,8.7,72.7,0,0,0,0
2023-04-03T02:49:00+09:00,1,��쓌,3.2,�쓌,8.8,72.3,0,0,0,0
2023-04-03T02:50:00+09:00,1,�쓌,3.2,�쓌,8.8,71.7,0,0,0,0
2023-04-03T02:51:00+09:00,1.1,�쓌,3.2,�쓌,8.9,71.2,0,0,0,0
2023-04-03T02:52:00+09:00,1,�쓌,3.2,�쓌,8.8,70.8,0,0,0,0
2023-04-03T02:53:00+09:00,0.9,�쓌,3.2,��,8.7,70.1,0,0,0,0
2023-04-03T02:54:00+09:00,0.9,�쓌,3.2,��,8.8,70.7,0,0,0,0
2023-04-03T02:55:00+09:00,1,�쓌,3.2,��,8.8,70.9,0,0,0,0
2023-04-03T02:56:00+09:00,1,��쓌,3.2,��,8.8,70.5,0,0,0,0
2023-04-03T02:57:00+09:00,,,,,,,,,,
2023-04-03T02:58:00+09:00,0.8,��쓌,2.6,��쐼,8.5,70.1,0,0,0,0
2023-04-03T02:59:00+09:00,0.7,��쓌,2.6,��쐼,8.5,70.9,0,0,0,0
2023-04-03T03:00:00+09:00,0.6,��쓌,2.6,��쐼,8.4,71.4,0,0,0,0
2023-04-03T03:01:00+09:00,0.6,��,2.6,��쐼,8.5,72.3,0,0,0,0
2023-04-03T03:02:00+09:00,0.7,���k��,3.9,���k��,8.7,72.9,0,0,0,0
2023-04-03T03:03:00+09:00,0.7,��,3.9,���k��,8.9,72.9,0,0,0,0
2023-04-03T03:04:00+09:00,0.7,���쐼,3.9,���k��,8.8,71.8,0,0,0,0
2023-04-03T03:05:00+09:00,0.6,�쐼,3.9,���k��,8.8,71.2,0,0,0,0
2023-04-03T03:06:00+09:00,0.7,��,3.9,���k��,8.8,70.9,0,0,0,0
2023-04-03T03:07:00+09:00,0.7,���k��,3.9,���k��,9,71.3,0,0,0,0
2023-04-03T03:08:00+09:00,0.7,���k��,3.9,���k��,9.1,70.8,0,0,0,0
2023-04-03T03:09:00+09:00,0.8,��,3.9,���k��,8.9,69.8,0,0,0,0
2023-04-03T03:10:00+09:00,1.1,��,5.4,���k��,8.9,69.5,0,0,0,0
2023-04-03T03:11:00+09:00,1.4,��,5.4,���k��,9,69.8,0,0,0,0
2023-04-03T03:12:00+09:00,1.6,��,5.4,���k��,9,69.6,0,0,0,0
2023-04-03T03:13:00+09:00,1.8,���k��,5.4,���k��,9,69.5,0,0,0,0
2023-04-03T03:14:00+09:00,1.9,���k��,5.4,���k��,9,69.2,0,0,0,0
2023-04-03T03:15:00+09:00,2,���k��,5.4,���k��,8.9,69,0,0,0,0
2023-04-03T03:16:00+09:00,1.9,���k��,5.4,���k��,8.9,68.9,0,0,0,0
2023-04-03T03:17:00+09:00,2.1,���k��,5.4,���k��,8.8,69,0,0,0,0
2023-04-03T03:18:00+09:00,2.1,���k��,5.4,���k��,8.8,69,0,0,0,0
2023-04-03T03:19:00+09:00,2,���k��,5.4,���k��,8.8,69.1,0,0,0,0
2023-04-03T03:20:00+09:00,1.9,���k��,5,���k��,8.8,69,0,0,0,0
2023-04-03T03:21:00+09:00,1.7,���k��,4.5,���k��,8.9,69.3,0,0,0,0
2023-04-03T03:22:00+09:00,1.6,���k��,5.2,�k�k��,8.9,69.2,0,0,0,0
2023-04-03T03:23:00+09:00,1.6,�k��,5.2,�k�k��,8.9,69,0,0,0,0
2023-04-03T03:24:00+09:00,1.5,�k��,5.2,�k�k��,8.9,68.8,0,0,0,0
2023-04-03T03:25:00+09:00,1.6,�k��,5.2,�k�k��,8.9,68.7,0,0,0,0
2023-04-03T03:26:00+09:00,1.7,�k��,5.2,�k�k��,8.9,68.7,0,0,0,0
2023-04-03T03:27:00+09:00,1.7,�k��,5.2,�k�k��,9,68.9,0,0,0,0
2023-04-03T03:28:00+09:00,1.7,�k��,5.2,�k�k��,9,68.6,0,0,0,0
2023-04-03T03:29:00+09:00,1.8,���k��,5.2,�k�k��,8.9,68.6,0,0,0,0
2023-04-03T03:30:00+09:00,1.7,���k��,5.2,�k�k��,8.8,68.8,0,0,0,0
2023-04-03T03:31:00+09:00,1.7,��,5.2,�k�k��,8.7,69.4,0,0,0,0
2023-04-03T03:32:00+09:00,1.7,��,4.9,�k��,8.7,69.9,0,0,0,0
2023-04-03T03:33:00+09:00,1.7,��,4.9,�k��,8.8,70.5,0,0,0,0
2023-04-03T03:34:00+09:00,1.8,��,4.9,�k��,8.9,69.9,0,0,0,0
2023-04-03T03:35:00+09:00,1.8,��,4.9,�k��,8.9,69.5,0,0,0,0
2023-04-03T03:36:00+09:00,1.9,��,4.9,�k��,9,69.4,0,0,0,0
2023-04-03T03:37:00+09:00,2.1,��,5.3,��,9,68.7,0,0,0,0
2023-04-03T03:38:00+09:00,2.2,��,5.3,��,9,68.1,0,0,0,0
2023-04-03T03:39:00+09:00,2.4,���k��,5.3,��,9,67.9,0,0,0,0
2023-04-03T03:40:00+09:00,2.6,���k��,5.3,��,9.1,67.7,0,0,0,0
2023-04-03T03:41:00+09:00,2.7,���k��,5.3,��,9,67.4,0,0,0,0
2023-04-03T03:42:00+09:00,2.7,���k��,5.3,��,9.1,67.5,0,0,0,0
2023-04-03T03:43:00+09:00,2.6,���k��,5.3,��,9.1,67.4,0,0,0,0
2023-04-03T03:44:00+09:00,2.5,���k��,5.3,��,9.1,67.1,0,0,0,0
2023-04-03T03:45:00+09:00,2.4,��,5.3,��,9,67.1,0,0,0,0
2023-04-03T03:46:00+09:00,2.3,���k��,5.3,��,9,67.1,0,0,0,0
2023-04-03T03:47:00+09:00,2.1,���k��,5.2,�k��,9,67.5,0,0,0,0
2023-04-03T03:48:00+09:00,2,���k��,5.2,�k��,9,67.5,0,0,0,0
2023-04-03T03:49:00+09:00,1.9,���k��,4.9,�k��,9,67.4,0,0,0,0
2023-04-03T03:50:00+09:00,1.7,��,3.8,��,9.1,67.6,0,0,0,0
2023-04-03T03:51:00+09:00,1.8,���k��,5.3,���k��,9.1,67.3,0,0,0,0
2023-04-03T03:52:00+09:00,1.9,���k��,5.6,���k��,9.1,67.2,0,0,0,0
2023-04-03T03:53:00+09:00,2.1,���k��,5.6,���k��,9.1,67,0,0,0,0
2023-04-03T03:54:00+09:00,2.3,���k��,5.7,���k��,9.1,66.8,0,0,0,0
2023-04-03T03:55:00+09:00,2.5,���k��,5.7,���k��,9,66.6,0,0,0,0
2023-04-03T03:56:00+09:00,2.6,���k��,5.7,���k��,9,66.7,0,0,0,0
2023-04-03T03:57:00+09:00,2.8,���k��,5.7,���k��,9.1,67,0,0,0,0
2023-04-03T03:58:00+09:00,2.8,���k��,5.7,���k��,9.1,66.8,0,0,0,0
2023-04-03T03:59:00+09:00,2.9,���k��,5.9,���k��,9.1,66.4,0,0,0,0
2023-04-03T04:00:00+09:00,3.1,���k��,6.5,���k��,9.1,66.4,0,0,0,0
2023-04-03T04:01:00+09:00,3,���k��,6.5,���k��,9.1,66.3,0,0,0,0
2023-04-03T04:02:00+09:00,2.9,���k��,6.5,���k��,9,66.2,0,0,0,0
2023-04-03T04:03:00+09:00,2.8,���k��,6.5,���k��,9,66.3,0,0,0,0
2023-04-03T04:04:00+09:00,2.8,���k��,6.8,��,9,66.9,0,0,0,0
2023-04-03T04:05:00+09:00,3,���k��,6.8,��,9.1,66.8,0,0,0,0
2023-04-03T04:06:00+09:00,3,���k��,6.8,��,9,66.3,0,0,0,0
2023-04-03T04:07:00+09:00,3.1,���k��,6.8,��,9,66.6,0,0,0,0
2023-04-03T04:08:00+09:00,3.2,���k��,6.8,��,9,66.9,0,0,0,0
2023-04-03T04:09:00+09:00,3.1,���k��,6.8,��,9,66.8,0,0,0,0
2023-04-03T04:10:00+09:00,3,���k��,6.8,��,8.9,66.7,0,0,0,0
2023-04-03T04:11:00+09:00,3.2,���k��,6.8,��,8.9,66.7,0,0,0,0
2023-04-03T04:12:00+09:00,3.3,���k��,6.8,��,9,66.8,0,0,0,0
2023-04-03T04:13:00+09:00,3.3,�k��,6.8,��,9,66.5,0,0,0,0
2023-04-03T04:14:00+09:00,3.1,�k��,5.7,���k��,9,66.3,0,0,0,0
2023-04-03T04:15:00+09:00,3.3,�k��,7.9,�k��,9,66.5,0,0,0,0
2023-04-03T04:16:00+09:00,3.4,�k��,7.9,�k��,9,66.3,0,0,0,0
2023-04-03T04:17:00+09:00,3.6,�k��,7.9,�k��,9.1,65.8,0,0,0,0
2023-04-03T04:18:00+09:00,3.7,�k��,7.9,�k��,9.2,65.3,0,0,0,0
2023-04-03T04:19:00+09:00,3.9,�k��,7.9,�k��,9.1,64.9,0,0,0,0
2023-04-03T04:20:00+09:00,4,�k��,7.9,�k��,9.1,65,0,0,0,0
2023-04-03T04:21:00+09:00,4.1,�k��,7.9,�k��,9.2,65.2,0,0,0,0
2023-04-03T04:22:00+09:00,4,�k��,7.9,�k��,9.1,64.9,0,0,0,0
2023-04-03T04:23:00+09:00,4.2,�k��,7.9,�k��,9.1,65,0,0,0,0
2023-04-03T04:24:00+09:00,4.4,�k��,7.9,�k��,9.1,64.8,0,0,0,0
2023-04-03T04:25:00+09:00,4.4,�k��,7.6,�k��,9.2,64.6,0,0,0,0
2023-04-03T04:26:00+09:00,4.3,�k��,7.6,�k��,9.2,64.1,0,0,0,0
2023-04-03T04:27:00+09:00,4.1,�k��,7.6,�k��,9.2,63.7,0,0,0,0
2023-04-03T04:28:00+09:00,4.2,�k��,7.6,�k��,9.2,63.9,0,0,0,0
2023-04-03T04:29:00+09:00,4.4,�k��,7.6,�k��,9.2,64.1,0,0,0,0
2023-04-03T04:30:00+09:00,4.5,�k��,7.6,�k��,9.3,63.8,0,0,0,0
2023-04-03T04:31:00+09:00,4.4,�k��,7.6,�k��,9.2,63.5,0,0,0,0
2023-04-03T04:32:00+09:00,4.4,�k��,7.6,�k��,9.2,63.6,0,0,0,0
2023-04-03T04:33:00+09:00,4.4,�k��,7.6,�k��,9.2,63.8,0,0,0,0
2023-04-03T04:34:00+09:00,4.4,�k��,7.6,�k��,9.2,63.9,0,0,0,0
2023-04-03T04:35:00+09:00,4.2,�k��,7.4,�k�k��,9.1,63.9,0,0,0,0
2023-04-03T04:36:00+09:00,4.1,�k��,7.4,�k�k��,9.1,64.2,0,0,0,0
2023-04-03T04:37:00+09:00,4.1,�k��,7.4,�k�k��,9.1,64.3,0,0,0,0
2023-04-03T04:38:00+09:00,3.8,�k��,6.8,�k�k��,9,64.5,0,0,0,0
2023-04-03T04:39:00+09:00,3.7,�k��,6.8,�k�k��,9,64.7,0,0,0,0
2023-04-03T04:40:00+09:00,3.6,�k��,6.2,�k��,9,65,0,0,0,0
2023-04-03T04:41:00+09:00,3.4,�k��,6.2,�k��,9.1,65.3,0,0,0,0
2023-04-03T04:42:00+09:00,3.4,�k��,6.2,�k��,9.1,65.1,0,0,0,0
2023-04-03T04:43:00+09:00,3.2,�k��,6.1,�k��,9,64.9,0,0,0,0
2023-04-03T04:44:00+09:00,3,�k��,5.3,�k��,9.1,65,0,0,0,0
2023-04-03T04:45:00+09:00,2.9,�k��,5.3,�k��,9,64.9,0,0,0,0
2023-04-03T04:46:00+09:00,2.9,�k��,5.3,�k��,9,65.1,0,0,0,0
2023-04-03T04:47:00+09:00,3,�k��,5.3,�k��,9,65.4,0,0,0,0
2023-04-03T04:48:00+09:00,3.1,�k��,6,�k��,9,65.5,0,0,0,0
2023-04-03T04:49:00+09:00,3,�k��,6,�k��,9,65.5,0,0,0,0
2023-04-03T04:50:00+09:00,3,�k��,6,�k��,9,65.5,0,0,0,0
2023-04-03T04:51:00+09:00,3.1,�k��,6.2,�k��,9,65.7,0,0,0,0
2023-04-03T04:52:00+09:00,3.3,�k��,6.2,�k��,9,65.6,0,0,0,0
2023-04-03T04:53:00+09:00,3.3,�k��,6.2,�k��,9,65.6,0,0,0,0
2023-04-03T04:54:00+09:00,3.4,�k��,6.2,�k��,9,65.4,0,0,0,0
2023-04-03T04:55:00+09:00,3.4,�k��,6.2,�k��,9,65.5,0,0,0,0
2023-04-03T04:56:00+09:00,3.4,�k��,6.2,�k��,9,65.5,0,0,0,0
2023-04-03T04:57:00+09:00,3.5,�k��,8.3,�k��,9,65.4,0,0,0,0
2023-04-03T04:58:00+09:00,3.7,�k��,8.3,�k��,9,65.5,0,0,0,0
2023-04-03T04:59:00+09:00,3.7,�k��,8.3,�k��,9,65.2,0,0,0,0
2023-04-03T05:00:00+09:00,3.6,�k��,8.3,�k��,8.9,65,0,0,0,0
2023-04-03T05:01:00+09:00,3.4,�k��,8.3,�k��,8.9,65.2,0,0,0,0
2023-04-03T05:02:00+09:00,3.2,�k��,8.3,�k��,8.9,65.6,0,0,0,0
2023-04-03T05:03:00+09:00,3.3,�k��,8.3,�k��,8.9,65.7,0,0,0,0
2023-04-03T05:04:00+09:00,3.2,�k��,8.3,�k��,8.9,65.6,0,0,0,0
2023-04-03T05:05:00+09:00,3.2,�k��,8.3,�k��,8.9,65.6,0,0,0,0
2023-04-03T05:06:00+09:00,3.3,�k��,8.3,�k��,8.9,65.7,0,0,0,0
2023-04-03T05:07:00+09:00,3,�k��,7.3,�k,8.9,65.7,0,0,0,0
2023-04-03T05:08:00+09:00,2.8,�k��,5.4,�k�k��,8.9,65.5,0,0,0,0
2023-04-03T05:09:00+09:00,2.6,�k��,5.1,�k��,8.9,65.5,0,0,0,0
2023-04-03T05:10:00+09:00,2.6,�k��,5.1,�k��,8.9,65.5,0,0,0,0
2023-04-03T05:11:00+09:00,2.8,�k��,5.1,�k��,8.9,65.5,0,0,0,0
2023-04-03T05:12:00+09:00,2.8,�k��,5.1,�k��,8.8,65.3,0,0,0,0
2023-04-03T05:13:00+09:00,2.9,�k��,6,�k��,8.9,65.4,0,0,0,0
2023-04-03T05:14:00+09:00,3.2,�k��,7.3,�k��,9,65.4,0,0,0,0
2023-04-03T05:15:00+09:00,3.4,�k��,7.3,�k��,9.1,64.8,0,0,0,0
2023-04-03T05:16:00+09:00,3.5,�k��,8.7,�k��,9.1,64,0,0,0,0
2023-04-03T05:17:00+09:00,3.7,�k��,8.7,�k��,9.1,63.7,0,0,0,0
2023-04-03T05:18:00+09:00,3.8,�k��,8.7,�k��,9.1,63.6,0,0,0,0
2023-04-03T05:19:00+09:00,4.2,�k��,8.7,�k��,9.1,63.7,0,0,0,0
2023-04-03T05:20:00+09:00,4.3,�k��,8.7,�k��,9,63.7,0,0,0,0
2023-04-03T05:21:00+09:00,4.3,�k��,8.7,�k��,9,63.7,0,0,0,0
2023-04-03T05:22:00+09:00,4.3,�k��,8.7,�k��,8.9,63.9,0,0,0,0
2023-04-03T05:23:00+09:00,4.3,�k��,8.7,�k��,8.9,64.3,0,0,0,0
2023-04-03T05:24:00+09:00,4.1,�k��,8.7,�k��,8.9,64.4,0,0,0,0
2023-04-03T05:25:00+09:00,4.1,�k��,8.7,�k��,8.9,64.6,0,0,0,0
2023-04-03T05:26:00+09:00,3.8,�k��,8.1,�k�k��,8.9,64.6,0,0,0,0
2023-04-03T05:27:00+09:00,3.6,�k��,8.1,�k�k��,8.9,64.3,0,0,0,0
2023-04-03T05:28:00+09:00,3.5,�k��,7.1,�k�k��,8.9,64.4,0,0,0,0
2023-04-03T05:29:00+09:00,3.3,�k��,6.1,�k��,8.8,64.6,0,0,0,0
2023-04-03T05:30:00+09:00,3.3,�k��,6.1,�k��,8.8,64.7,0,0,0,0
2023-04-03T05:31:00+09:00,3.3,�k��,6.1,�k��,8.9,64.8,0,0,0,0
2023-04-03T05:32:00+09:00,3.3,�k��,6.1,�k��,8.9,64.8,0,0,0,0
2023-04-03T05:33:00+09:00,3.1,�k��,6.1,�k��,8.8,64.6,0,0,0,0
2023-04-03T05:34:00+09:00,2.9,�k��,6.1,�k��,8.8,64.6,0,0,0,0
2023-04-03T05:35:00+09:00,2.9,�k��,5.9,�k�k��,8.7,64.9,0,0,0,0
2023-04-03T05:36:00+09:00,3,�k��,5.9,�k�k��,8.7,65.2,0,0,0,0
2023-04-03T05:37:00+09:00,3.2,�k��,5.9,�k�k��,8.8,65.3,0,0,0,0
2023-04-03T05:38:00+09:00,3.1,�k��,5.9,�k�k��,8.8,65.3,0,0,0,0
2023-04-03T05:39:00+09:00,3.1,�k��,5.6,���k��,8.8,65.2,0,0,0,0
2023-04-03T05:40:00+09:00,3.2,�k��,6.7,�k�k��,8.8,65,0,0,0,0
2023-04-03T05:41:00+09:00,3.2,�k��,6.7,�k�k��,8.9,65.1,0,0,0,0
2023-04-03T05:42:00+09:00,3.2,�k��,6.7,�k�k��,8.8,64.5,0,0,0,0
2023-04-03T05:43:00+09:00,3.1,�k��,6.7,�k�k��,8.7,64.6,0,0,0,0
2023-04-03T05:44:00+09:00,3,�k��,6.7,�k�k��,8.6,64.9,0,0,0,0
2023-04-03T05:45:00+09:00,2.8,�k��,6.7,�k�k��,8.6,65.3,0,0,0,0
2023-04-03T05:46:00+09:00,2.6,�k��,6.7,�k�k��,8.5,65.7,0,0,0,0
2023-04-03T05:47:00+09:00,2.6,�k��,6.7,�k�k��,8.5,66,0,0,0,0
2023-04-03T05:48:00+09:00,2.6,�k��,6.7,�k�k��,8.6,66.3,0,0,0,0
2023-04-03T05:49:00+09:00,2.6,���k��,6.7,�k�k��,8.6,66.2,0,0,0,0
2023-04-03T05:50:00+09:00,2.6,���k��,6.2,�k��,8.6,66.3,0,0,0,0
2023-04-03T05:51:00+09:00,2.6,���k��,6.2,�k��,8.7,66.3,0,0,0,0
2023-04-03T05:52:00+09:00,2.6,���k��,6.2,�k��,8.7,65.6,0,0,0,0
2023-04-03T05:53:00+09:00,2.8,���k��,6.2,�k��,8.8,65.5,0,0,0,0
2023-04-03T05:54:00+09:00,3.1,���k��,6.2,�k��,8.8,65.2,0,0,0,0
2023-04-03T05:55:00+09:00,3.3,���k��,6.2,�k��,8.8,65.1,0,0,0,0
2023-04-03T05:56:00+09:00,3.2,���k��,6.2,�k��,8.8,64.8,0,0,0,0
2023-04-03T05:57:00+09:00,3.2,���k��,6.2,�k��,8.8,64.8,0,0,0,0
2023-04-03T05:58:00+09:00,3.3,���k��,6.2,�k��,8.8,64.7,0,0,0,0
2023-04-03T05:59:00+09:00,3.4,���k��,6.2,�k��,8.8,64.5,0,0,0,0
2023-04-03T06:00:00+09:00,3.3,���k��,6.2,���k��,8.7,64.4,0,0,0,0
2023-04-03T06:01:00+09:00,3.2,���k��,6.2,���k��,8.7,64.8,0,0,0,0
2023-04-03T06:02:00+09:00,3.1,���k��,6.2,���k��,8.6,65,0,0,0,0
2023-04-03T06:03:00+09:00,3,���k��,6.2,���k��,8.6,65.3,0,0,0,0
2023-04-03T06:04:00+09:00,2.9,���k��,5.6,���k��,8.6,65.6,0,0,0,0
2023-04-03T06:05:00+09:00,2.7,���k��,5.6,���k��,8.6,65.6,0,0,0,0
2023-04-03T06:06:00+09:00,2.9,���k��,5.6,���k��,8.7,65.6,0,0,0,0
2023-04-03T06:07:00+09:00,2.9,�k��,5.6,���k��,8.7,65.4,0,0,0,0
2023-04-03T06:08:00+09:00,2.7,�k��,5.6,�k�k��,8.7,65.5,0,0,0,0
2023-04-03T06:09:00+09:00,2.5,�k��,5.6,�k�k��,8.7,65,0,0,0,0
2023-04-03T06:10:00+09:00,2.4,���k��,5.6,�k�k��,8.6,65.1,0,0,0,0
2023-04-03T06:11:00+09:00,2.4,�k��,5.6,�k�k��,8.6,65.3,0,0,0,0
2023-04-03T06:12:00+09:00,2.5,�k��,6.2,�k,8.6,65.6,0,0,0,0
2023-04-03T06:13:00+09:00,2.7,�k��,6.5,�k,8.8,65.8,0,0,0,0
2023-04-03T06:14:00+09:00,2.7,�k��,6.5,�k,8.8,65.1,0,0,0,0
2023-04-03T06:15:00+09:00,2.8,�k��,6.5,�k,8.7,64.8,0,0,0,0
2023-04-03T06:16:00+09:00,2.6,�k��,6.5,�k,8.7,64.8,0,0,0,0
2023-04-03T06:17:00+09:00,2.5,���k��,6.5,�k,8.6,65.2,0,0,0,0
2023-04-03T06:18:00+09:00,2.4,���k��,6.5,�k,8.6,65.3,0,0,0,0
2023-04-03T06:19:00+09:00,2.5,���k��,6.5,�k,8.6,65.5,0,0,0,0
2023-04-03T06:20:00+09:00,2.6,���k��,6.5,�k,8.6,65.8,0,0,0,0
2023-04-03T06:21:00+09:00,2.5,���k��,6.5,�k,8.7,66,0,0,0,0
2023-04-03T06:22:00+09:00,2.3,���k��,6.5,�k,8.7,65.4,0,0,0,0
2023-04-03T06:23:00+09:00,2.1,���k��,5.3,���k��,8.7,65,0,0,0,0
2023-04-03T06:24:00+09:00,2,���k��,5.3,���k��,8.6,65.2,0,0,0,0
2023-04-03T06:25:00+09:00,1.8,���k��,5.3,���k��,8.5,65.3,0,0,0,0
2023-04-03T06:26:00+09:00,1.8,���k��,5.3,���k��,8.5,65.6,0,0,0,0
2023-04-03T06:27:00+09:00,1.7,���k��,5.3,���k��,8.6,66.2,0,0,0,0
2023-04-03T06:28:00+09:00,1.6,���k��,5.3,���k��,8.6,66.3,0,0,0,0
2023-04-03T06:29:00+09:00,1.5,���k��,5.3,���k��,8.6,66.1,0,0,0,0
2023-04-03T06:30:00+09:00,1.3,���k��,4,���k��,8.6,66.2,0,0,0,0
2023-04-03T06:31:00+09:00,1.1,���k��,2.1,���k��,8.7,66.2,0,0,0,0
2023-04-03T06:32:00+09:00,1,���k��,1.9,�k��,8.8,65.9,0,0,0,0
2023-04-03T06:33:00+09:00,0.9,��,1.8,��,8.8,65.7,0,0,0,0
2023-04-03T06:34:00+09:00,0.9,��,1.8,��,8.8,65.5,0,0,0,0
2023-04-03T06:35:00+09:00,0.9,��,2.3,�쓌,8.8,65.3,0,0,0,0
2023-04-03T06:36:00+09:00,1,��,2.3,�쓌,8.8,65,0,0,0,0
2023-04-03T06:37:00+09:00,0.9,��,2.3,�쓌,8.8,64.9,0,0,0,0
2023-04-03T06:38:00+09:00,1,��,2.3,�쓌,8.8,65,0,0,0,0